TimeMDT,TemperatureF,Dew PointF,Humidity,Sea Level PressureIn,VisibilityMPH,Wind Direction,Wind SpeedMPH,Gust SpeedMPH,PrecipitationIn,Events,Conditions,WindDirDegrees,DateUTC
12:53 AM,44.1,33.1,65,30.12,10.0,NNW,8.1,-,N/A,,Clear,340,2013-10-24 06:53:00
1:53 AM,39.0,32.0,76,30.13,10.0,East,3.5,-,N/A,,Clear,90,2013-10-24 07:53:00
2:53 AM,36.0,30.9,82,30.14,10.0,West,6.9,-,N/A,,Clear,260,2013-10-24 08:53:00
3:53 AM,36.0,33.1,89,30.14,10.0,WNW,8.1,-,N/A,,Clear,300,2013-10-24 09:53:00
4:53 AM,34.0,30.9,89,30.16,10.0,WSW,8.1,-,N/A,,Clear,250,2013-10-24 10:53:00
5:53 AM,34.0,30.9,89,30.19,10.0,West,8.1,-,N/A,,Clear,270,2013-10-24 11:53:00
6:53 AM,33.1,30.9,92,30.22,10.0,West,8.1,-,N/A,,Clear,260,2013-10-24 12:53:00
7:03 AM,33.8,30.2,87,30.26,0.5,WNW,10.4,-,N/A,,Partly Cloudy,290,2013-10-24 13:03:00
7:40 AM,33.8,33.8,100,30.26,0.2,West,8.1,-,N/A,,Partly Cloudy,270,2013-10-24 13:40:00
7:53 AM,34.0,33.1,96,30.25,0.2,West,10.4,-,N/A,,Partly Cloudy,270,2013-10-24 13:53:00
7:56 AM,33.8,33.8,100,30.26,0.2,West,11.5,-,N/A,,Overcast,270,2013-10-24 13:56:00
8:53 AM,35.1,34.0,96,30.26,0.2,West,12.7,-,N/A,Fog,Fog,270,2013-10-24 14:53:00
8:57 AM,35.6,33.8,93,30.28,0.2,West,12.7,-,N/A,Fog,Fog,260,2013-10-24 14:57:00
9:06 AM,35.6,33.8,93,30.28,0.2,West,11.5,-,N/A,Fog,Fog,280,2013-10-24 15:06:00
9:53 AM,36.0,35.1,97,30.27,0.2,WNW,8.1,-,N/A,,Overcast,290,2013-10-24 15:53:00
10:32 AM,39.2,35.6,87,30.29,1.2,West,6.9,-,N/A,,Haze,280,2013-10-24 16:32:00
10:47 AM,41.0,35.6,81,30.29,7.0,WNW,8.1,-,N/A,,Scattered Clouds,300,2013-10-24 16:47:00
10:53 AM,41.0,36.0,82,30.25,9.0,WNW,8.1,-,N/A,,Scattered Clouds,290,2013-10-24 16:53:00
11:53 AM,45.0,36.0,71,30.24,10.0,NW,8.1,-,N/A,,Scattered Clouds,320,2013-10-24 17:53:00
12:53 PM,48.0,37.0,66,30.20,10.0,NNW,5.8,-,N/A,,Scattered Clouds,330,2013-10-24 18:53:00
1:53 PM,50.0,37.0,61,30.18,10.0,Variable,5.8,-,N/A,,Scattered Clouds,0,2013-10-24 19:53:00
2:53 PM,53.1,37.0,55,30.16,10.0,Calm,Calm,-,N/A,,Scattered Clouds,0,2013-10-24 20:53:00
3:53 PM,54.0,37.0,53,30.16,10.0,Calm,Calm,-,N/A,,Scattered Clouds,0,2013-10-24 21:53:00
4:53 PM,54.0,37.0,53,30.16,10.0,NNE,4.6,-,N/A,,Scattered Clouds,30,2013-10-24 22:53:00
5:53 PM,48.0,37.0,66,30.19,10.0,North,6.9,-,N/A,,Scattered Clouds,10,2013-10-24 23:53:00
6:53 PM,45.0,36.0,71,30.22,10.0,NNE,5.8,-,N/A,,Scattered Clouds,20,2013-10-25 00:53:00
7:53 PM,43.0,36.0,76,30.23,10.0,NNE,4.6,-,N/A,,Scattered Clouds,20,2013-10-25 01:53:00
8:53 PM,46.0,36.0,68,30.22,10.0,North,5.8,-,N/A,,Scattered Clouds,10,2013-10-25 02:53:00
9:53 PM,42.1,35.1,76,30.25,8.0,WSW,5.8,-,N/A,,Scattered Clouds,250,2013-10-25 03:53:00
10:53 PM,42.1,36.0,79,30.22,9.0,SW,5.8,-,N/A,,Scattered Clouds,220,2013-10-25 04:53:00
11:53 PM,39.0,34.0,82,30.21,9.0,SSW,8.1,-,N/A,,Partly Cloudy,200,2013-10-25 05:53:00